User: anonymous   Login
Location: Bishausen
(51.6334°N, 9.9631°E)
Time: 14:23:39
(UTC+00:00)
Language:

Cosmos 676 Rocket - Orbit

View from above orbital plane
View from above orbital plane
View from above satellite
View from above satellite

Ground track
Ground track

The orbit data is extracted from the following two-line orbital elements,

1  7434U 74071B   24199.21014467  .00000493  00000-0  17300-3 0  9997
2  7434  74.0462 141.4236 0019695 135.8284 224.4447 14.37491436608277
Epoch (UTC): 17 July 2024 05:02:36
Eccentricity: 0.0019695
inclination: 74.0462°
perigee height: 753 km
apogee height: 781 km
right ascension of ascending node: 141.4236°
argument of perigee: 135.8284°
revolutions per day: 14.37491436
mean anomaly at epoch: 224.4447°
orbit number at epoch: 60827

The dashed part of the orbit path shows where the satellite is in the earth's shadow,  

DLR